2024/01/31 00:00:00,52.2,-1.5
2024/01/31 00:10:00,52.2,-1.4
2024/01/31 00:20:00,52.2,-1.5
2024/01/31 00:30:00,52.2,-1.4
2024/01/31 00:40:00,52.2,-1.2
2024/01/31 00:50:00,52.2,-1.3
2024/01/31 01:00:00,52.2,-1.2
2024/01/31 01:10:00,52.1,-1.1
2024/01/31 01:20:00,52.0,-1.0
2024/01/31 01:30:00,52.0,-1.1
2024/01/31 01:40:00,52.0,-1.0
2024/01/31 01:50:00,52.0,-1.3
2024/01/31 02:00:00,51.9,-1.4
2024/01/31 02:10:00,51.9,-1.1
2024/01/31 02:20:00,51.9,-1.3
2024/01/31 02:30:00,51.8,-1.9
2024/01/31 02:40:00,51.9,-1.7
2024/01/31 02:50:00,51.8,-1.7
2024/01/31 03:00:00,51.8,-1.7
2024/01/31 03:10:00,51.8,-1.8
2024/01/31 03:20:00,51.8,-1.5
2024/01/31 03:30:00,51.8,-1.7
2024/01/31 03:40:00,51.8,-1.2
2024/01/31 03:50:00,51.8,-1.3
2024/01/31 04:00:00,51.8,-1.0
2024/01/31 04:10:00,51.7,-0.8
2024/01/31 04:20:00,51.7,-0.8
2024/01/31 04:30:00,51.7,-1.0
2024/01/31 04:40:00,51.6,-1.3
2024/01/31 04:50:00,51.6,-1.0
2024/01/31 05:00:00,51.5,-0.7
2024/01/31 05:10:00,51.5,-1.2
2024/01/31 05:20:00,51.5,-1.3
2024/01/31 05:30:00,51.5,-0.9
2024/01/31 05:40:00,51.5,-0.6
2024/01/31 05:50:00,51.6,-0.7
2024/01/31 06:00:00,51.5,-0.5
2024/01/31 06:10:00,51.4,-0.2
2024/01/31 06:20:00,51.5,-0.3
2024/01/31 06:30:00,51.4,-0.4
2024/01/31 06:40:00,51.4,-0.3
2024/01/31 06:50:00,51.4,-0.3
2024/01/31 07:00:00,51.4,-0.2
2024/01/31 07:10:00,51.3,-0.1
2024/01/31 07:20:00,51.3,-0.1
2024/01/31 07:30:00,51.2, 0.2
2024/01/31 07:40:00,51.0, 0.1
2024/01/31 07:50:00,51.0,-0.0
2024/01/31 08:00:00,51.0, 0.2
2024/01/31 08:10:00,50.9, 0.3
2024/01/31 08:20:00,50.9, 0.3
2024/01/31 08:30:00,50.9, 0.3
2024/01/31 08:40:00,50.9, 0.3
2024/01/31 08:50:00,50.9, 0.8
2024/01/31 09:00:00,50.8, 1.0
2024/01/31 09:10:00,50.9, 0.6
2024/01/31 09:20:00,50.8, 0.5
2024/01/31 09:30:00,50.7, 1.2
2024/01/31 09:40:00,50.7, 1.2
2024/01/31 09:50:00,50.4, 1.3
2024/01/31 10:00:00,50.6, 1.6
2024/01/31 10:10:00,50.6, 1.2
2024/01/31 10:20:00,50.4, 0.9
2024/01/31 10:30:00,50.1, 1.4
2024/01/31 10:40:00,50.2, 1.8
2024/01/31 10:50:00,50.4, 1.6
2024/01/31 11:00:00,50.6, 1.3
2024/01/31 11:10:00,50.5, 1.4
2024/01/31 11:20:00,50.2, 1.1
2024/01/31 11:30:00,50.0, 1.2
2024/01/31 11:40:00,49.8, 1.8
2024/01/31 11:50:00,49.8, 1.6
2024/01/31 12:00:00,50.1, 1.5
2024/01/31 12:10:00,49.9, 1.4
2024/01/31 12:20:00,49.9, 1.4
2024/01/31 12:30:00,49.8, 1.6
2024/01/31 12:40:00,49.8, 1.6
2024/01/31 12:50:00,49.8, 1.5
2024/01/31 13:00:00,49.6, 1.6
2024/01/31 13:10:00,49.3, 2.2
2024/01/31 13:20:00,49.4, 2.2
2024/01/31 13:30:00,49.5, 2.2
2024/01/31 13:40:00,49.4, 2.2
2024/01/31 13:50:00,49.7, 1.9
2024/01/31 14:00:00,49.3, 2.2
2024/01/31 14:10:00,49.3, 2.0
2024/01/31 14:20:00,48.9, 2.4
2024/01/31 14:30:00,49.1, 2.4
2024/01/31 14:40:00,49.1, 2.0
2024/01/31 14:50:00,49.2, 1.9
2024/01/31 15:00:00,49.1, 2.4
2024/01/31 15:10:00,49.0, 2.1
2024/01/31 15:20:00,49.3, 1.8
2024/01/31 15:30:00,49.3, 1.7
2024/01/31 15:40:00,49.4, 1.6
2024/01/31 15:50:00,49.3, 1.4
2024/01/31 16:00:00,49.3, 1.2
2024/01/31 16:10:00,49.5, 1.1
2024/01/31 16:20:00,49.4, 1.1
2024/01/31 16:30:00,49.1, 1.6
2024/01/31 16:40:00,48.9, 1.3
2024/01/31 16:50:00,48.8, 1.3
2024/01/31 17:00:00,48.8, 1.3
2024/01/31 17:10:00,48.7, 1.2
2024/01/31 17:20:00,48.6, 1.2
2024/01/31 17:30:00,48.7, 1.0
2024/01/31 17:40:00,48.6, 0.9
2024/01/31 17:50:00,48.6, 1.2
2024/01/31 18:00:00,48.6, 1.1
2024/01/31 18:10:00,48.3, 1.1
2024/01/31 18:20:00,47.9, 1.0
2024/01/31 18:30:00,47.9, 0.8
2024/01/31 18:40:00,47.8, 1.0
2024/01/31 18:50:00,47.6, 0.9
2024/01/31 19:00:00,47.6, 1.0
2024/01/31 19:10:00,47.4, 0.8
2024/01/31 19:20:00,47.2, 1.4
2024/01/31 19:30:00,47.0, 1.6
2024/01/31 19:40:00,46.9, 1.2
2024/01/31 19:50:00,46.9, 0.8
2024/01/31 20:00:00,46.9, 0.5
2024/01/31 20:10:00,46.8, 0.8
2024/01/31 20:20:00,46.6, 0.8
2024/01/31 20:30:00,46.4, 0.9
2024/01/31 20:40:00,46.2, 0.9
2024/01/31 20:50:00,46.1, 0.9
2024/01/31 21:00:00,45.6, 0.9
2024/01/31 21:10:00,45.5, 0.7
2024/01/31 21:20:00,45.5, 0.8
2024/01/31 21:30:00,45.5, 1.0
2024/01/31 21:40:00,45.4, 0.9
2024/01/31 21:50:00,45.2, 1.1
2024/01/31 22:00:00,45.0, 0.4
2024/01/31 22:10:00,44.8, 0.5
2024/01/31 22:20:00,44.7, 0.5
2024/01/31 22:30:00,44.8, 1.2
2024/01/31 22:40:00,44.6, 0.8
2024/01/31 22:50:00,44.5, 1.1
2024/01/31 23:00:00,44.5, 0.9
2024/01/31 23:10:00,44.1, 0.6
2024/01/31 23:20:00,44.0, 0.6
2024/01/31 23:30:00,43.7, 1.0
2024/01/31 23:40:00,43.7, 0.9
2024/01/31 23:50:00,43.7, 0.8
